Skip Page Navigation
NASA JPL Caltech
NASA Logo - Jet Propulsion Laboratory + View the NASA Portal
+ Center for Near-Earth Object Studies
JPL Home Earth Solar System Stars & Galaxies Technology
JPL Solar System Dynamics
BODIES ORBITS EPHEMERIDES TOOLS PHYSICAL DATA DISCOVERY FAQ SITE MAP
JPL Small-Body Database Browser
Search: [ help ]  
469098 (2015 CJ33)
Classification: Main-belt Asteroid          SPK-ID: 2469098
Ephemeris | Orbit Diagram | Orbital Elements | Mission Design | Physical Parameters | Discovery Circumstances | Close-Approach Data ]

[ show orbit diagram ]
Orbital Elements at Epoch 2459000.5 (2020-May-31.0) TDB
Reference: JPL 11 (heliocentric ecliptic J2000)
 Element Value Uncertainty (1-sigma)   Units 
e .1411031411747906 6.0441e-08  
a 3.180247866002574 6.6793e-08 au
q 2.731504902395186 1.9183e-07 au
i 5.978171848476495 7.0208e-06 deg
node 127.3129343433287 6.7815e-05 deg
peri 30.78162977630189 7.3614e-05 deg
M 326.6041975137574 3.1877e-05 deg
tp 2459192.667201107390
(2020-Dec-09.16720111)
0.0001873 TDB
period 2071.523582257354
5.67
6.526e-05
1.787e-07
d
yr
n .1737851323940544 5.4748e-09 deg/d
Q 3.628990829609962 7.6217e-08 au
  Orbit Determination Parameters
   # obs. used (total)      132  
   data-arc span      7110 days (19.47 yr)  
   first obs. used      2000-08-27  
   last obs. used      2020-02-14  
   planetary ephem.      DE431  
   SB-pert. ephem.      SB431-N16  
   condition code      0  
   norm. resid. RMS      .68878  
   source      ORB  
   producer      Otto Matic  
   solution date      2020-Nov-12 04:22:38  

Additional Information
 Earth MOID = 1.7432 au 
 Jupiter MOID = 1.36893 au 
 T_jup = 3.176 
[ show covariance matrix ]

Ephemeris | Orbit Diagram | Orbital Elements | Mission Design | Physical Parameters | Discovery Circumstances | Close-Approach Data ]

Physical Parameter Table
Parameter Symbol Value Units Sigma Reference Notes
absolute magnitude H 16.3   n/a MPO460742  

469098 (2015 CJ33)          Discovered 2007-Oct-15 by Mt. Lemmon Survey at Mount Lemmon
Reference: Last Updated: 2016-06-21

[ show close-approach data ]
Alternate Designations
 2015 CJ33 = 2007 TG402 = 2010 HN107 = 2010 JU157 
Ephemeris | Orbit Diagram | Orbital Elements | Mission Design | Physical Parameters | Discovery Circumstances | Close-Approach Data ]
ABOUT SSD CREDITS/AWARDS PRIVACY/COPYRIGHT GLOSSARY LINKS
FirstGov 2020-Dec-04 20:54 UT
(server date/time)  
NASA Home Page
Site Manager:   Ryan S. Park
Webmaster  Alan B. Chamberlin